Probability
5 5 4 5 6 3 1 0 0 0 0 0 0 0 0 0 0 0 0 0 0 1 2 3 4 5 3 2 1 0 1 3 4 4 4 3 3 3 3 3 3 3 4 4 4 4 4 4 3
4 3 4 6 5 2 0 0 0 0 0 0 0 0 0 0 0 0 0 0 0 0 1 3 4 4 3 1 1 1 2 3 3 4 3 3 3 3 3 3 3 3 4 4 4 3 4 3 3
3 3 4 6 3 1 0 0 0 0 0 0 0 0 0 0 0 0 0 0 0 0 1 2 3 3 2 2 1 2 3 4 3 3 3 3 2 1 2 2 2 3 3 4 4 4 4 4 4
4 4 4 3 1 0 0 0 0 0 0 0 0 0 0 0 0 0 0 0 0 0 1 2 3 4 3 2 2 4 5 4 4 3 3 2 1 1 1 1 1 1 3 5 5 5 5 5 5
5 5 3 1 0 0 0 0 0 0 0 0 0 0 0 0 0 0 0 0 0 0 0 2 4 5 4 2 3 5 6 5 4 3 3 1 1 0 0 0 0 1 3 4 5 4 4 3 3
4 4 2 0 0 0 0 0 0 0 0 0 0 0 0 0 0 0 0 0 0 0 0 2 5 6 5 3 4 5 6 5 4 3 2 1 0 0 0 0 0 1 2 3 3 3 2 1 1
3 2 1 0 0 0 0 0 0 0 0 0 0 0 0 0 0 0 0 0 0 0 0 2 4 5 5 4 5 6 5 4 3 2 1 0 0 1 1 0 0 1 1 1 2 1 1 0 0
3 2 1 0 0 0 0 0 0 0 0 0 0 0 0 0 0 0 0 0 0 0 0 0 1 2 3 4 5 6 5 4 3 2 1 0 0 1 1 0 0 0 0 0 0 1 1 1 0
3 2 1 0 0 0 0 0 0 0 0 0 0 0 0 0 0 0 0 0 0 0 0 0 0 1 2 3 4 5 4 4 4 3 2 1 1 1 1 0 0 0 0 0 0 1 2 2 1
3 1 0 0 0 0 0 0 0 0 0 0 0 0 0 0 0 0 0 0 0 0 0 0 0 0 1 3 4 4 4 4 4 4 3 3 2 2 1 0 0 0 0 0 0 1 2 2 2
1 0 0 0 0 0 0 0 0 0 0 0 0 0 0 0 0 0 0 0 0 0 0 0 0 1 2 4 5 6 5 4 3 4 5 4 4 3 1 0 0 0 0 0 0 0 1 1 2
0 0 0 0 0 0 0 0 0 0 0 0 0 0 0 0 0 0 0 0 0 0 0 1 1 2 4 6 6 6 6 5 4 5 6 5 4 4 2 1 0 0 0 0 0 0 0 1 2
0 0 0 0 0 0 0 0 0 0 0 0 0 0 0 0 0 0 0 0 0 0 1 2 3 4 6 6 6 6 6 4 5 5 6 5 4 3 2 1 1 0 0 0 1 1 1 1 1
0 0 0 0 0 0 0 0 0 0 0 0 0 0 0 0 0 0 0 0 0 1 2 3 4 5 7 6 6 6 6 5 4 5 5 4 3 1 2 2 1 0 0 0 0 0 0 0 0
0 0 0 0 0 0 0 0 0 0 0 0 0 0 0 0 0 1 0 0 0 1 2 3 3 5 7 6 5 5 5 4 4 4 4 3 2 1 1 2 1 0 0 0 0 0 0 0 0
0 0 0 0 0 0 0 0 0 0 0 0 0 0 0 1 1 1 0 0 0 1 3 3 4 5 6 5 3 3 4 4 4 3 3 2 2 1 1 1 2 1 1 0 0 0 0 0 0
0 0 0 0 0 0 0 0 0 0 0 0 0 0 1 2 2 1 1 0 1 1 3 5 6 7 7 4 1 2 4 6 6 4 3 1 1 1 1 2 3 3 2 1 1 0 0 0 0
0 0 0 0 0 0 0 0 0 0 0 0 0 1 1 3 4 3 2 2 2 3 5 7 8 9 8 4 2 2 4 6 7 6 3 1 0 0 1 2 3 3 3 3 2 1 0 0 0
0 0 0 0 0 0 0 0 0 0 0 0 0 1 2 3 4 4 4 4 4 5 7 10 10 10 9 7 5 5 6 6 6 6 4 2 0 1 2 3 4 3 3 3 3 2 1 0 0
0 0 0 0 0 0 0 0 0 0 0 0 1 1 2 3 3 3 4 5 6 8 11 15 15 13 11 10 9 9 7 7 6 6 4 2 1 1 4 5 4 3 3 3 3 3 2 1 1
0 0 0 0 0 0 0 0 0 0 0 1 1 1 1 3 3 3 4 4 6 8 13 16 17 16 16 15 14 11 10 10 9 8 7 5 3 4 5 5 5 3 2 1 2 2 2 1 0
0 0 0 0 0 0 0 0 1 0 1 2 2 1 1 3 4 5 6 6 5 7 10 14 15 17 19 20 18 15 13 13 12 12 11 8 6 6 5 4 4 4 2 1 1 1 1 0 0
0 0 0 0 0 0 0 0 0 0 1 2 2 2 3 3 5 8 10 9 7 6 9 13 17 17 19 21 21 19 15 15 15 14 12 9 7 6 3 2 3 3 3 3 2 1 0 0 0
0 0 0 0 0 0 0 0 0 0 1 2 3 3 3 2 5 10 13 12 10 8 10 15 19 19 20 22 23 22 20 19 17 14 11 8 6 5 4 3 3 3 4 4 4 3 2 2 2
0 0 0 0 0 0 0 0 1 1 2 3 3 2 2 3 6 11 13 13 13 12 13 16 20 23 24 24 24 24 24 23 18 14 11 9 7 7 7 5 4 4 4 3 4 4 4 5 7
0 0 0 0 0 0 0 1 2 3 4 4 3 2 3 5 8 10 11 12 15 18 17 18 21 24 25 25 25 24 23 22 20 17 14 12 10 10 9 6 5 4 2 2 3 3 4 7 8
0 0 0 0 0 0 0 2 3 4 5 6 5 4 5 7 7 8 9 11 15 18 19 18 19 21 22 22 22 22 21 21 22 20 17 13 11 10 8 7 6 3 2 3 5 5 6 8 8
0 0 0 0 0 0 0 1 3 3 6 9 9 7 7 7 6 7 9 12 14 15 15 16 17 19 20 21 21 20 20 20 21 20 18 14 11 9 8 8 7 5 5 6 7 8 8 9 8
0 0 0 0 0 0 0 1 2 3 6 10 12 10 8 7 6 8 12 13 14 15 16 16 17 19 21 22 22 21 20 20 20 20 20 16 12 10 9 8 8 7 7 7 8 8 7 7 7
0 0 0 0 0 0 0 1 2 4 7 11 13 11 9 7 6 10 13 14 15 17 18 18 18 19 21 23 24 21 20 22 21 20 21 17 13 11 10 9 9 8 7 7 7 6 6 5 6
Wind_Speed
11 8 5 5 5 2 9 9 8 7 7 7 6 5 7 8 7 8 6 6 6 8 8 9 7 6 6 7 7 7 7 7 7 8 8 8 8 9 9 9 9 9 9 9 10 9 9 9 9
7 5 5 5 2 6 10 8 8 8 7 6 6 5 7 8 8 8 6 6 7 8 8 8 8 7 7 7 7 7 7 7 7 8 8 8 7 8 8 8 8 8 9 9 9 9 8 8 8
6 5 5 2 5 8 9 8 8 8 6 4 5 6 7 7 7 6 7 7 7 8 8 10 8 7 7 7 7 7 7 7 7 7 7 7 7 7 7 7 7 7 8 8 8 8 7 7 7
5 5 4 0 9 9 7 6 6 6 6 5 5 7 8 6 4 7 8 8 8 8 8 11 7 7 7 7 7 7 6 6 6 6 6 6 6 6 7 7 7 7 7 7 7 7 7 7 7
5 4 1 5 9 8 6 5 4 5 6 5 5 8 9 6 7 9 8 8 8 7 7 10 8 7 6 6 6 6 6 6 6 5 5 5 5 5 6 7 6 6 6 7 6 6 6 6 6
4 3 2 7 8 7 6 5 4 6 7 6 6 8 8 7 8 8 8 7 7 7 7 9 9 7 6 6 6 6 6 5 5 5 4 4 4 4 5 5 5 5 5 6 6 6 6 5 5
3 2 4 7 7 7 6 4 4 5 7 6 5 7 9 8 8 8 8 7 7 6 6 7 8 8 7 6 5 5 5 5 5 4 4 4 4 4 4 4 4 4 5 5 5 6 5 5 5
4 2 3 6 6 8 5 4 4 4 7 6 3 5 8 9 8 8 8 8 6 5 5 5 5 6 6 7 6 4 4 4 4 4 3 3 4 5 5 6 5 4 5 5 6 6 6 5 5
5 2 5 6 5 6 5 5 5 4 7 6 5 6 10 12 10 9 8 7 6 5 4 4 4 5 4 5 6 5 5 4 3 4 4 2 2 3 4 4 4 3 4 5 5 6 6 7 8
4 2 8 6 5 4 4 4 4 4 6 6 8 9 11 11 10 9 8 8 7 6 5 4 4 4 4 3 4 3 3 3 2 2 2 1 1 1 2 6 4 4 4 5 5 6 9 9 5
2 3 5 4 4 3 4 4 3 3 5 5 7 10 11 11 9 8 7 7 7 6 5 4 4 3 3 2 2 2 1 2 2 2 1 1 1 1 1 2 4 4 5 4 5 6 4 4 2
1 2 3 2 2 2 3 4 4 3 5 6 8 11 11 10 8 7 7 6 6 6 5 4 4 3 2 1 2 2 1 1 1 3 1 1 1 0 1 0 1 1 1 1 1 1 2 3 3
2 1 2 2 2 3 3 4 4 4 5 7 9 10 10 9 8 6 6 5 5 5 5 5 4 4 3 2 1 2 1 1 2 2 2 0 0 1 1 1 1 1 1 1 1 1 2 2 3
1 1 1 2 4 4 4 4 3 5 6 8 9 9 8 8 7 7 6 5 4 5 5 5 5 5 4 3 2 1 1 1 1 2 2 1 1 1 1 1 1 1 1 2 1 2 2 1 1
3 3 4 4 3 3 3 4 3 5 7 8 8 8 8 7 7 6 6 5 5 5 5 5 6 5 5 3 3 2 1 1 1 2 2 1 1 1 1 1 1 2 1 2 1 2 2 1 1
6 6 3 4 2 3 5 2 5 6 7 7 7 8 7 7 7 6 6 5 5 5 5 5 4 5 5 3 2 1 1 1 1 1 2 1 2 1 1 1 2 1 1 1 1 1 1 1 0
6 4 2 4 3 2 5 1 4 6 6 6 6 7 7 7 7 7 6 6 6 5 5 6 5 5 5 4 3 2 2 1 1 1 1 1 1 1 0 1 2 0 1 1 1 2 1 0 0
3 3 3 2 3 3 4 1 3 5 6 6 6 6 7 7 7 7 6 6 6 6 6 6 6 6 5 4 3 3 2 2 1 1 1 0 0 1 1 1 1 1 1 1 2 1 1 1 1
5 5 3 1 2 5 5 3 3 5 6 6 6 7 7 7 7 7 7 7 7 6 7 7 6 6 5 4 4 3 3 2 2 2 2 1 0 0 0 1 2 0 1 1 1 0 1 0 1
7 7 4 3 2 4 4 4 3 5 7 6 7 7 8 8 7 8 8 8 8 8 8 8 8 7 6 4 3 2 2 2 2 2 2 1 1 1 1 0 0 0 1 0 0 1 1 0 0
8 7 5 3 3 6 6 6 5 5 6 7 7 7 7 8 8 8 8 8 8 8 8 7 7 7 7 6 4 3 3 3 3 3 3 2 1 1 0 0 1 1 1 1 0 1 1 1 1
7 4 6 6 7 4 6 5 5 5 6 7 8 8 8 8 8 8 8 8 8 8 8 8 7 7 7 7 6 5 4 3 3 2 2 2 2 1 1 0 1 1 1 1 1 0 1 2 1
5 3 6 7 8 7 7 8 3 6 6 6 7 7 7 7 8 8 8 7 7 8 8 8 7 7 7 7 7 6 5 4 3 3 3 2 2 1 1 1 0 1 1 1 2 1 2 1 2
5 6 7 8 9 9 6 8 4 3 3 4 6 6 6 6 7 7 7 6 6 7 7 7 7 7 7 7 7 7 6 4 3 3 3 3 2 2 1 1 1 1 1 0 1 1 1 2 2
10 9 7 8 8 6 4 7 3 2 1 3 3 5 6 6 6 7 7 7 7 7 8 8 8 7 7 7 6 6 6 6 5 4 3 3 2 2 2 1 1 1 0 0 1 0 1 1 1
10 11 8 7 6 4 6 7 1 2 1 2 3 3 5 5 6 6 7 7 6 7 7 8 7 7 7 7 6 5 6 5 4 4 3 3 2 1 2 2 1 1 1 1 0 1 1 0 1
9 10 9 10 9 8 5 4 4 4 4 4 5 4 4 5 5 5 6 7 7 7 7 7 7 7 7 7 7 6 5 4 3 3 4 3 2 2 3 2 2 1 1 1 1 0 1 0 1
9 7 7 9 8 9 6 7 3 5 5 5 5 5 4 5 5 5 5 6 6 6 7 7 7 7 6 6 6 5 6 5 4 4 3 2 2 2 2 3 2 2 1 1 2 1 1 1 1
9 9 9 9 9 10 8 3 2 3 4 4 4 4 4 5 5 5 5 5 5 5 6 6 6 6 6 6 5 5 5 5 5 5 4 4 3 3 3 2 2 3 2 2 1 2 1 2 2
9 9 10 10 9 9 10 3 3 2 2 3 3 3 3 4 4 4 5 5 5 5 5 5 5 6 6 5 5 5 5 5 5 5 5 4 4 4 3 3 3 3 2 2 2 3 2 2 2
Wind_Direction
182 188 211 238 234 122 67 66 66 71 77 72 70 54 56 44 27 66 89 113 115 122 124 127 115 104 93 89 96 104 103 106 112 117 125 127 130 135 137 138 140 143 145 144 143 143 142 142 144
174 186 228 241 304 71 70 65 67 64 78 94 80 61 64 64 54 89 110 117 129 123 125 117 114 107 100 94 96 100 102 103 109 113 120 124 129 135 139 140 143 144 145 146 146 146 147 147 147
179 225 262 260 48 53 65 66 72 85 95 92 81 62 53 62 79 98 109 134 133 121 119 111 118 111 105 100 98 98 101 103 105 112 115 122 129 137 140 141 144 145 148 150 148 149 150 147 148
210 222 234 37 67 56 60 73 86 102 99 77 89 88 77 61 76 101 123 140 129 124 122 114 122 115 108 104 100 97 100 103 107 113 115 119 125 136 141 142 149 152 154 154 152 149 149 148 147
240 257 182 83 71 69 70 78 83 87 87 87 85 92 86 76 93 113 131 135 129 125 119 119 124 122 115 108 106 103 97 99 105 110 114 117 120 133 142 142 146 151 154 157 157 156 153 152 152
243 250 65 72 77 80 83 89 94 87 91 98 98 99 90 105 113 122 129 131 126 124 121 121 130 129 126 118 109 101 102 100 103 103 102 110 116 125 137 141 145 150 155 160 162 161 159 162 168
293 350 62 75 84 88 79 81 82 89 97 92 99 99 109 116 118 127 129 128 123 123 124 124 134 137 137 126 113 110 106 101 101 105 100 106 115 127 139 144 149 156 164 168 169 167 169 175 180
291 281 76 77 80 82 91 92 74 72 90 99 103 97 118 129 134 133 132 130 126 129 129 130 133 131 141 139 130 121 113 109 108 106 108 123 155 159 162 168 156 160 171 176 179 182 181 184 188
258 262 67 59 61 80 99 100 93 95 109 106 84 80 113 134 142 141 137 136 136 137 140 137 130 133 134 128 127 146 143 140 164 151 139 185 175 139 160 119 132 158 173 181 191 195 195 196 193
262 20 52 41 40 73 102 94 114 132 124 117 111 105 124 141 149 150 147 147 148 149 152 140 144 139 138 132 132 150 152 138 161 116 141 165 124 99 111 119 147 167 173 182 187 201 207 217 199
277 11 38 42 52 76 109 110 115 128 111 119 130 132 142 150 156 155 151 153 152 153 152 152 155 151 153 144 137 124 125 125 136 97 90 97 135 139 141 146 161 172 183 184 174 201 210 206 204
257 13 18 40 63 91 95 110 110 83 75 108 130 139 147 157 161 161 155 153 151 158 160 161 156 151 151 139 131 144 140 125 111 111 87 101 92 28 80 106 110 152 142 155 196 199 190 213 211
233 34 53 69 104 108 112 111 113 107 105 121 132 143 153 160 161 160 153 152 157 163 166 162 158 151 157 164 207 144 129 107 108 97 105 66 100 74 88 86 68 75 106 152 171 189 174 193 201
339 346 106 117 115 121 127 119 125 111 132 137 145 152 159 163 164 161 164 168 170 172 167 158 164 159 166 172 182 164 150 125 80 91 78 49 40 45 53 105 91 72 59 55 64 99 119 125 142
234 203 154 132 133 133 178 146 139 132 147 154 157 160 165 171 172 174 176 178 180 178 172 168 167 162 168 180 187 169 157 143 106 92 91 53 49 64 3 60 83 68 67 80 86 91 101 114 129
218 218 186 136 154 161 238 126 121 150 165 165 165 166 174 180 186 185 185 187 185 181 175 178 176 164 163 170 183 168 159 120 105 90 92 76 47 49 10 39 59 54 62 80 82 57 83 91 117
212 226 204 148 162 199 242 131 126 162 180 175 173 175 179 182 194 192 194 190 188 184 183 180 184 174 172 170 175 177 159 140 141 105 80 90 81 99 148 66 49 40 56 49 28 69 356 62 154
252 254 231 207 167 225 242 229 150 176 195 191 185 184 186 190 195 192 197 192 187 184 187 188 186 182 182 180 181 185 166 173 166 134 97 86 108 98 300 118 71 33 67 47 52 53 28 319 266
278 273 264 233 193 238 241 242 196 186 205 199 194 191 195 199 190 189 194 195 189 187 193 195 197 186 190 191 195 186 178 184 172 162 132 154 268 145 294 15 97 11 72 13 6 24 150 277 306
249 250 235 214 214 251 250 246 211 196 209 212 204 200 198 198 192 195 199 197 195 192 196 196 198 191 194 188 195 195 195 190 177 167 144 169 186 232 185 267 208 96 130 138 329 310 320 336 259
243 255 252 237 218 225 241 226 201 190 202 211 213 214 207 204 201 197 201 202 198 196 196 199 198 191 193 188 187 183 184 195 177 180 167 166 183 195 286 195 296 293 276 102 313 293 294 303 256
243 253 255 235 238 229 242 257 191 196 201 204 207 210 212 208 207 203 201 203 202 197 192 194 195 193 192 193 195 194 195 201 193 188 160 164 175 190 202 229 272 289 321 14 276 51 293 281 275
266 252 242 241 249 252 230 263 190 194 208 204 205 208 210 207 206 203 203 201 200 194 189 183 183 188 192 197 196 205 213 211 195 182 159 188 168 195 214 199 207 231 288 1 333 350 308 286 294
207 208 213 231 243 245 237 258 236 193 214 214 206 202 204 202 199 197 197 194 196 193 190 184 179 186 190 197 201 206 211 209 198 187 175 189 179 184 186 196 214 229 271 293 283 292 271 306 315
220 231 226 222 226 239 198 248 260 112 206 238 216 198 196 193 195 190 190 192 194 195 193 189 184 186 188 194 198 200 204 202 200 202 189 207 196 181 161 191 203 262 270 276 282 279 318 323 331
224 246 257 264 263 240 196 239 172 130 192 215 210 193 186 186 189 188 188 190 192 193 193 189 184 186 188 191 194 197 199 204 198 202 208 200 208 188 158 183 186 211 241 241 232 258 253 237 278
223 237 264 271 270 264 233 225 188 179 191 199 197 191 187 185 185 185 182 183 184 188 189 188 183 187 191 191 189 194 197 202 193 184 202 202 193 181 170 183 190 193 215 256 261 295 289 259 257
253 253 243 255 264 264 245 230 219 189 204 205 202 196 184 180 184 187 181 177 180 184 184 186 186 188 188 190 192 183 182 187 188 192 187 190 189 188 186 186 190 192 197 210 250 230 218 233 254
206 224 243 258 264 270 267 245 101 195 208 210 204 194 189 190 189 184 179 171 172 175 174 178 183 187 188 186 185 185 184 184 186 190 189 190 196 191 192 193 199 204 209 212 236 263 249 242 252
237 237 234 244 249 256 271 261 111 173 194 199 194 174 174 186 189 180 171 164 165 166 167 167 179 184 183 178 178 184 188 190 191 190 187 189 195 200 194 198 202 215 212 217 230 249 250 246 248